Provo, UT (84603)

5:23 AM MDT on August 30, 2014 (GMT -0600)
Snake Hill Farm | Change Station
CLOSE
Current Station
Personal Weather Station
Location: Orem, UT
Elevation: 4741 ft
Nearby Weather Stations

Elev 4741 ft 40.26 °N, 111.69 °W | Updated 12 seconds ago

Clear
Clear
65.7 °F
Feels Like 65.7 °F
N
0.0
Wind Variable Wind from SW
Gusts 0.0 mph

Today
High -- | Low -- °F
--% Chance of Precip.
Yesterday
High -- | Low -- °F
Precip. -- in
6:52 AM 8:01 PM
Waxing Crescent, 21% visible
Pressure 29.98 in
Visibility 10.0 miles
Clouds Clear
Dew Point 45 °F
Humidity 47%
Rainfall 0.00 in
Snow Depth 0 in
UV 0 out of 12
Pollen 8.60 out of 12
Air Quality Not available.
Flu Activity Not available.
METAR KPVU 301115Z 15008KT 10SM CLR 19/07 A2998 RMK AO1

More Conditions Fewer Conditions

Pressure 29.98 in
Visibility 10.0 miles
Clouds Clear
Dew Point 45 °F
Humidity 47%
Rainfall 0.00 in
Snow Depth 0 in
UV 0 out of 12
Pollen 8.60 out of 12
Air Quality Not available.
Flu Activity Not available.
METAR KPVU 301115Z 15008KT 10SM CLR 19/07 A2998 RMK AO1

More Conditions Fewer Conditions

10-Day Weather Forecast

Almanac

Astronomy

Aug. 30, 2014 Rise Set
Actual Time 6:52 AM MDT 8:01 PM MDT
Civil Twilight 6:24 AM MDT 8:29 PM MDT
Nautical Twilight 5:51 AM MDT 9:02 PM MDT
Astronomical Twilight 5:15 AM MDT 9:37 PM MDT
Moon 11:44 AM MDT 10:37 PM MDT
Length of Visible Light 14h 04m
Length of Day
13h 09m
Tomorrow will be 2m 33s shorter.
Waxing Crescent, 21% of the Moon is Illuminated
Today
Waxing Crescent
Sep 2
First Quarter
Sep 8
Full
Sep 15
Last Quarter
Sep 24
New

Today's Extremes

State Highs State Lows

Community

WunderPhotos

Upload Photos

1,748,492 photos uploaded!

WunderBlogs® & News

By Dr. Jeff Masters
Director of Meteorology, Weather Underground
By Kari Strenfel
Meteorologist, Weather Underground
By Christopher C. Burt
Weather Historian, Weather Underground
August 30, 2014
August 30, 2014
August 30, 2014

Nearby

Snow Depth

Station Depth Elevation
Cascade Mountain 0 in 7768 ft
Daniels-Strawberry 0 in 8000 ft
Strawberry Divide 0 in 8400 ft
Mill-d North 0 in 8960 ft
Rocky Basin-Settlement 0 in 8900 ft

Earthquake Activity

City Distance Mag. Time & Date
No recent earthquake activity has been reported nearby.
Minimum magnitude displayed is 2.5.

Coastal Water Temperatures

Place Temperature
No Stations Reporting

Nearby Weather Stations